Simultaneous Nadir Overpasses (SNOs) Predictions

Prediction of SNOs between METOP-A and TERRA Satellite Orbit:

Table of predicted SNOs for the next 14.0 days since TLE Epoch: 5/10/2014
Index Date (METOP-A) Time (METOP-A) Lat,Lon (METOP-A) SZA (METOP-A ) Date (TERRA) Time (TERRA) Lat,Lon (TERRA) SZA (TERRA ) Distance(km) Time Diff (sec)
1 05/10/2014 16:40:25 81.28, -23.31 66.51 05/10/2014 16:40:43 81.28, -23.31 66.52 0.06 18
2 05/10/2014 17:31:04 -81.29, 144.66 113.43 05/10/2014 17:30:09 -81.29, 144.61 113.45 1.17 55
3 05/13/2014 12:14:47 81.28, 43.28 65.83 05/13/2014 12:15:00 81.29, 43.30 65.84 0.94 13
4 05/13/2014 13:05:27 -81.28,-149.14 114.15 05/13/2014 13:04:27 -81.28,-149.12 114.18 0.26 60
5 05/16/2014 07:49:11 81.28, 109.43 65.13 05/16/2014 07:49:19 81.27, 109.36 65.12 1.64 8
6 05/16/2014 08:39:50 -81.28, -82.59 114.80 05/16/2014 08:38:45 -81.29, -82.66 114.84 1.17 65
7 05/19/2014 03:23:34 81.28, 175.93 64.52 05/19/2014 03:23:36 81.28, 175.99 64.53 0.94 2
8 05/19/2014 04:14:14 -81.28, -16.48 115.46 05/19/2014 04:13:03 -81.28, -16.38 115.49 1.72 71
9 05/21/2014 22:07:16 -81.27, 74.70 116.10 05/21/2014 22:08:26 -81.28, 74.77 116.06 1.43 70




NCC Satellite Simultaneous Nadir Overpasses (SNOs) Prediction Service
